Year,Month,Day,Hour,Minute,Value (Times are PST for temperature in C)
2007,07,15,00,00,17.50
2007,07,15,00,01,17.70
2007,07,15,00,02,17.70
2007,07,15,00,03,17.80
2007,07,15,00,04,17.80
2007,07,15,00,05,17.80
2007,07,15,00,06,17.80
2007,07,15,00,07,17.70
2007,07,15,00,08,17.70
2007,07,15,00,09,17.70
2007,07,15,00,10,17.70
2007,07,15,00,11,17.70
2007,07,15,00,12,17.60
2007,07,15,00,13,17.70
2007,07,15,00,14,17.60
2007,07,15,00,15,17.60
2007,07,15,00,16,17.60
2007,07,15,00,17,17.60
2007,07,15,00,18,17.60
2007,07,15,00,19,17.60
2007,07,15,00,20,17.70
2007,07,15,00,21,17.70
2007,07,15,00,22,17.80
2007,07,15,00,23,17.80
2007,07,15,00,24,17.90
2007,07,15,00,25,17.90
2007,07,15,00,26,17.90
2007,07,15,00,27,18.10
2007,07,15,00,28,18.10
2007,07,15,00,29,18.10
2007,07,15,00,30,18.20
2007,07,15,00,31,18.10
2007,07,15,00,32,18.10
2007,07,15,00,33,18.20
2007,07,15,00,34,18.20
2007,07,15,00,35,18.20
2007,07,15,00,36,18.20
2007,07,15,00,37,18.20
2007,07,15,00,38,18.20
2007,07,15,00,39,18.20
2007,07,15,00,40,18.20
2007,07,15,00,41,18.10
2007,07,15,00,42,17.90
2007,07,15,00,43,17.80
2007,07,15,00,44,17.70
2007,07,15,00,45,17.60
2007,07,15,00,46,17.60
2007,07,15,00,47,17.70
2007,07,15,00,48,17.70
2007,07,15,00,49,17.80
2007,07,15,00,50,17.90
2007,07,15,00,51,17.90
2007,07,15,00,52,18.00
2007,07,15,00,53,18.20
2007,07,15,00,54,18.30
2007,07,15,00,55,18.50
2007,07,15,00,56,18.50
2007,07,15,00,57,18.60
2007,07,15,00,58,18.70
2007,07,15,00,59,18.80
2007,07,15,01,00,18.90
2007,07,15,01,01,18.90
2007,07,15,01,02,19.00
2007,07,15,01,03,19.10
2007,07,15,01,04,19.10
2007,07,15,01,05,19.10
2007,07,15,01,06,19.10
2007,07,15,01,07,18.90
2007,07,15,01,08,18.90
2007,07,15,01,09,18.90
2007,07,15,01,10,19.00
2007,07,15,01,11,19.10
2007,07,15,01,12,19.10
2007,07,15,01,13,19.10
2007,07,15,01,14,19.10
2007,07,15,01,15,19.10
2007,07,15,01,16,19.10
2007,07,15,01,17,19.10
2007,07,15,01,18,18.90
2007,07,15,01,19,18.70
2007,07,15,01,20,18.50
2007,07,15,01,21,18.40
2007,07,15,01,22,18.20
2007,07,15,01,23,18.00
2007,07,15,01,24,17.90
2007,07,15,01,25,17.80
2007,07,15,01,26,17.60
2007,07,15,01,27,17.50
2007,07,15,01,28,17.50
2007,07,15,01,29,17.40
2007,07,15,01,30,17.40
2007,07,15,01,31,17.30
2007,07,15,01,32,17.30
2007,07,15,01,33,17.30
2007,07,15,01,34,17.30
2007,07,15,01,35,17.30
2007,07,15,01,36,17.40
2007,07,15,01,37,17.50
2007,07,15,01,38,17.60
2007,07,15,01,39,17.70
2007,07,15,01,40,17.80
2007,07,15,01,41,17.90
2007,07,15,01,42,17.90
2007,07,15,01,43,17.80
2007,07,15,01,44,17.70
2007,07,15,01,45,17.70
2007,07,15,01,46,17.70
2007,07,15,01,47,17.70
2007,07,15,01,48,17.80
2007,07,15,01,49,17.80
2007,07,15,01,50,17.90
2007,07,15,01,51,18.00
2007,07,15,01,52,18.10
2007,07,15,01,53,18.20
2007,07,15,01,54,18.30
2007,07,15,01,55,18.30
2007,07,15,01,56,18.30
2007,07,15,01,57,18.20
2007,07,15,01,58,18.00
2007,07,15,01,59,17.90
2007,07,15,02,00,17.80
2007,07,15,02,01,17.70
2007,07,15,02,02,17.50
2007,07,15,02,03,17.40
2007,07,15,02,04,17.30
2007,07,15,02,05,17.10
2007,07,15,02,06,17.00
2007,07,15,02,07,16.90
2007,07,15,02,08,16.90
2007,07,15,02,09,16.80
2007,07,15,02,10,16.80
2007,07,15,02,11,16.70
2007,07,15,02,12,16.70
2007,07,15,02,13,16.70
2007,07,15,02,14,16.60
2007,07,15,02,15,16.50
2007,07,15,02,16,16.40
2007,07,15,02,17,16.40
2007,07,15,02,18,16.30
2007,07,15,02,19,16.30
2007,07,15,02,20,16.30
2007,07,15,02,21,16.20
2007,07,15,02,22,16.10
2007,07,15,02,23,16.00
2007,07,15,02,24,15.90
2007,07,15,02,25,15.80
2007,07,15,02,26,15.80
2007,07,15,02,27,15.80
2007,07,15,02,28,15.80
2007,07,15,02,29,15.80
2007,07,15,02,30,15.90
2007,07,15,02,31,15.80
2007,07,15,02,32,15.80
2007,07,15,02,33,15.80
2007,07,15,02,34,15.80
2007,07,15,02,35,15.90
2007,07,15,02,36,15.90
2007,07,15,02,37,15.90
2007,07,15,02,38,15.90
2007,07,15,02,39,15.90
2007,07,15,02,40,15.90
2007,07,15,02,41,15.90
2007,07,15,02,42,15.90
2007,07,15,02,43,16.00
2007,07,15,02,44,16.10
2007,07,15,02,45,16.10
2007,07,15,02,46,16.20
2007,07,15,02,47,16.30
2007,07,15,02,48,16.40
2007,07,15,02,49,16.50
2007,07,15,02,50,16.70
2007,07,15,02,51,16.70
2007,07,15,02,52,16.80
2007,07,15,02,53,16.90
2007,07,15,02,54,16.90
2007,07,15,02,55,17.00
2007,07,15,02,56,17.10
2007,07,15,02,57,17.10
2007,07,15,02,58,17.20
2007,07,15,02,59,17.20
2007,07,15,03,00,17.20
2007,07,15,03,01,17.20
2007,07,15,03,02,17.20
2007,07,15,03,03,17.20
2007,07,15,03,04,17.20
2007,07,15,03,05,17.20
2007,07,15,03,06,17.20
2007,07,15,03,07,17.20
2007,07,15,03,08,17.20
2007,07,15,03,09,17.20
2007,07,15,03,10,17.20
2007,07,15,03,11,17.20
2007,07,15,03,12,17.20
2007,07,15,03,13,17.20
2007,07,15,03,14,17.30
2007,07,15,03,15,17.30
2007,07,15,03,16,17.30
2007,07,15,03,17,17.40
2007,07,15,03,18,17.50
2007,07,15,03,19,17.60
2007,07,15,03,20,17.70
2007,07,15,03,21,17.70
2007,07,15,03,22,17.80
2007,07,15,03,23,17.70
2007,07,15,03,24,17.60
2007,07,15,03,25,17.40
2007,07,15,03,26,17.40
2007,07,15,03,27,17.40
2007,07,15,03,28,17.30
2007,07,15,03,29,17.30
2007,07,15,03,30,17.10
2007,07,15,03,31,17.00
2007,07,15,03,32,16.90
2007,07,15,03,33,16.80
2007,07,15,03,34,16.70
2007,07,15,03,35,16.70
2007,07,15,03,36,16.60
2007,07,15,03,37,16.60
2007,07,15,03,38,16.60
2007,07,15,03,39,16.70
2007,07,15,03,40,16.70
2007,07,15,03,41,16.70
2007,07,15,03,42,16.80
2007,07,15,03,43,16.90
2007,07,15,03,44,17.00
2007,07,15,03,45,17.10
2007,07,15,03,46,17.10
2007,07,15,03,47,17.20
2007,07,15,03,48,17.30
2007,07,15,03,49,17.30
2007,07,15,03,50,17.30
2007,07,15,03,51,17.40
2007,07,15,03,52,17.40
2007,07,15,03,53,17.40
2007,07,15,03,54,17.50
2007,07,15,03,55,17.60
2007,07,15,03,56,17.60
2007,07,15,03,57,17.70
2007,07,15,03,58,17.70
2007,07,15,03,59,17.80
2007,07,15,04,00,17.90
2007,07,15,04,01,17.90
2007,07,15,04,02,18.00
2007,07,15,04,03,18.10
2007,07,15,04,04,18.10
2007,07,15,04,05,18.20
2007,07,15,04,06,18.20
2007,07,15,04,07,18.20
2007,07,15,04,08,18.20
2007,07,15,04,09,18.20
2007,07,15,04,10,18.20
2007,07,15,04,11,18.20
2007,07,15,04,12,18.20
2007,07,15,04,13,18.20
2007,07,15,04,14,18.20
2007,07,15,04,15,18.20
2007,07,15,04,16,18.20
2007,07,15,04,17,18.20
2007,07,15,04,18,18.20
2007,07,15,04,19,18.20
2007,07,15,04,20,18.20
2007,07,15,04,21,18.10
2007,07,15,04,22,18.10
2007,07,15,04,23,18.00
2007,07,15,04,24,17.90
2007,07,15,04,25,17.90
2007,07,15,04,26,17.80
2007,07,15,04,27,17.80
2007,07,15,04,28,17.80
2007,07,15,04,29,17.80
2007,07,15,04,30,17.80
2007,07,15,04,31,17.80
2007,07,15,04,32,17.80
2007,07,15,04,33,17.80
2007,07,15,04,34,17.80
2007,07,15,04,35,17.90
2007,07,15,04,36,17.90
2007,07,15,04,37,17.80
2007,07,15,04,38,17.80
2007,07,15,04,39,17.80
2007,07,15,04,40,17.80
2007,07,15,04,41,17.80
2007,07,15,04,42,17.80
2007,07,15,04,43,17.70
2007,07,15,04,44,17.70
2007,07,15,04,45,17.60
2007,07,15,04,46,17.60
2007,07,15,04,47,17.60
2007,07,15,04,48,17.60
2007,07,15,04,49,17.60
2007,07,15,04,50,17.70
2007,07,15,04,51,17.70
2007,07,15,04,52,17.70
2007,07,15,04,53,17.60
2007,07,15,04,54,17.30
2007,07,15,04,55,17.10
2007,07,15,04,56,16.90
2007,07,15,04,57,16.50
2007,07,15,04,58,16.20
2007,07,15,04,59,15.90
2007,07,15,05,00,15.80
2007,07,15,05,01,15.70
2007,07,15,05,02,15.60
2007,07,15,05,03,15.60
2007,07,15,05,04,15.60
2007,07,15,05,05,15.60
2007,07,15,05,06,15.60
2007,07,15,05,07,15.60
2007,07,15,05,08,15.70
2007,07,15,05,09,15.70
2007,07,15,05,10,15.80
2007,07,15,05,11,15.80
2007,07,15,05,12,15.90
2007,07,15,05,13,16.00
2007,07,15,05,14,16.10
2007,07,15,05,15,16.30
2007,07,15,05,16,16.40
2007,07,15,05,17,16.50
2007,07,15,05,18,16.60
2007,07,15,05,19,16.70
2007,07,15,05,20,16.70
2007,07,15,05,21,16.70
2007,07,15,05,22,16.80
2007,07,15,05,23,16.80
2007,07,15,05,24,16.80
2007,07,15,05,25,16.80
2007,07,15,05,26,16.80
2007,07,15,05,27,16.80
2007,07,15,05,28,16.90
2007,07,15,05,29,16.90
2007,07,15,05,30,16.90
2007,07,15,05,31,16.90
2007,07,15,05,32,16.90
2007,07,15,05,33,17.00
2007,07,15,05,34,17.00
2007,07,15,05,35,17.10
2007,07,15,05,36,17.10
2007,07,15,05,37,17.20
2007,07,15,05,38,17.20
2007,07,15,05,39,17.20
2007,07,15,05,40,17.30
2007,07,15,05,41,17.30
2007,07,15,05,42,17.30
2007,07,15,05,43,17.30
2007,07,15,05,44,17.30
2007,07,15,05,45,17.30
2007,07,15,05,46,17.30
2007,07,15,05,47,17.30
2007,07,15,05,48,17.30
2007,07,15,05,49,17.30
2007,07,15,05,50,17.20
2007,07,15,05,51,17.20
2007,07,15,05,52,17.20
2007,07,15,05,53,17.20
2007,07,15,05,54,17.20
2007,07,15,05,55,17.20
2007,07,15,05,56,17.20
2007,07,15,05,57,17.20
2007,07,15,05,58,17.20
2007,07,15,05,59,17.20
2007,07,15,06,00,17.30
2007,07,15,06,01,17.30
2007,07,15,06,02,17.30
2007,07,15,06,03,17.30
2007,07,15,06,04,17.30
2007,07,15,06,05,17.30
2007,07,15,06,06,17.30
2007,07,15,06,07,17.30
2007,07,15,06,08,17.40
2007,07,15,06,09,17.40
2007,07,15,06,10,17.40
2007,07,15,06,11,17.40
2007,07,15,06,12,17.40
2007,07,15,06,13,17.40
2007,07,15,06,14,17.40
2007,07,15,06,15,17.40
2007,07,15,06,16,17.40
2007,07,15,06,17,17.40
2007,07,15,06,18,17.40
2007,07,15,06,19,17.40
2007,07,15,06,20,17.40
2007,07,15,06,21,17.40
2007,07,15,06,22,17.40
2007,07,15,06,23,17.40
2007,07,15,06,24,17.40
2007,07,15,06,25,17.40
2007,07,15,06,26,17.50
2007,07,15,06,27,17.50
2007,07,15,06,28,17.50
2007,07,15,06,29,17.50
2007,07,15,06,30,17.50
2007,07,15,06,31,17.60
2007,07,15,06,32,17.50
2007,07,15,06,33,17.60
2007,07,15,06,34,17.50
2007,07,15,06,35,17.50
2007,07,15,06,36,17.50
2007,07,15,06,37,17.50
2007,07,15,06,38,17.50
2007,07,15,06,39,17.50
2007,07,15,06,40,17.40
2007,07,15,06,41,17.40
2007,07,15,06,42,17.30
2007,07,15,06,43,17.30
2007,07,15,06,44,17.30
2007,07,15,06,45,17.30
2007,07,15,06,46,17.30
2007,07,15,06,47,17.30
2007,07,15,06,48,17.40
2007,07,15,06,49,17.40
2007,07,15,06,50,17.50
2007,07,15,06,51,17.50
2007,07,15,06,52,17.60
2007,07,15,06,53,17.70
2007,07,15,06,54,17.70
2007,07,15,06,55,17.80
2007,07,15,06,56,17.80
2007,07,15,06,57,17.90
2007,07,15,06,58,17.90
2007,07,15,06,59,17.90
2007,07,15,07,00,18.00
2007,07,15,07,01,18.10
2007,07,15,07,02,18.10
2007,07,15,07,03,18.20
2007,07,15,07,04,18.10
2007,07,15,07,05,18.10
2007,07,15,07,06,18.10
2007,07,15,07,07,18.10
2007,07,15,07,08,18.10
2007,07,15,07,09,18.10
2007,07,15,07,10,18.10
2007,07,15,07,11,18.10
2007,07,15,07,12,18.10
2007,07,15,07,13,18.20
2007,07,15,07,14,18.20
2007,07,15,07,15,18.20
2007,07,15,07,16,18.30
2007,07,15,07,17,18.30
2007,07,15,07,18,18.30
2007,07,15,07,19,18.50
2007,07,15,07,20,18.50
2007,07,15,07,21,18.60
2007,07,15,07,22,18.60
2007,07,15,07,23,18.60
2007,07,15,07,24,18.60
2007,07,15,07,25,18.60
2007,07,15,07,26,18.60
2007,07,15,07,27,18.60
2007,07,15,07,28,18.60
2007,07,15,07,29,18.60
2007,07,15,07,30,18.50
2007,07,15,07,31,18.50
2007,07,15,07,32,18.40
2007,07,15,07,33,18.40
2007,07,15,07,34,18.40
2007,07,15,07,35,18.40
2007,07,15,07,36,18.40
2007,07,15,07,37,18.40
2007,07,15,07,38,18.50
2007,07,15,07,39,18.50
2007,07,15,07,40,18.60
2007,07,15,07,41,18.60
2007,07,15,07,42,18.70
2007,07,15,07,43,18.80
2007,07,15,07,44,18.80
2007,07,15,07,45,18.90
2007,07,15,07,46,19.00
2007,07,15,07,47,19.10
2007,07,15,07,48,19.20
2007,07,15,07,49,19.30
2007,07,15,07,50,19.30
2007,07,15,07,51,19.40
2007,07,15,07,52,19.50
2007,07,15,07,53,19.60
2007,07,15,07,54,19.70
2007,07,15,07,55,19.80
2007,07,15,07,56,19.80
2007,07,15,07,57,19.80
2007,07,15,07,58,19.60
2007,07,15,07,59,19.50
2007,07,15,08,00,19.30
2007,07,15,08,01,19.10
2007,07,15,08,02,19.00
2007,07,15,08,03,18.90
2007,07,15,08,04,18.90
2007,07,15,08,05,18.60
2007,07,15,08,06,18.40
2007,07,15,08,07,18.20
2007,07,15,08,08,18.00
2007,07,15,08,09,17.90
2007,07,15,08,10,17.70
2007,07,15,08,11,17.60
2007,07,15,08,12,17.50
2007,07,15,08,13,17.50
2007,07,15,08,14,17.40
2007,07,15,08,15,17.40
2007,07,15,08,16,17.50
2007,07,15,08,17,17.50
2007,07,15,08,18,17.50
2007,07,15,08,19,17.50
2007,07,15,08,20,17.40
2007,07,15,08,21,17.30
2007,07,15,08,22,17.20
2007,07,15,08,23,17.20
2007,07,15,08,24,17.10
2007,07,15,08,25,17.00
2007,07,15,08,26,17.00
2007,07,15,08,27,16.90
2007,07,15,08,28,16.80
2007,07,15,08,29,16.80
2007,07,15,08,30,16.70
2007,07,15,08,31,16.60
2007,07,15,08,32,16.40
2007,07,15,08,33,16.40
2007,07,15,08,34,16.30
2007,07,15,08,35,16.20
2007,07,15,08,36,16.00
2007,07,15,08,37,15.80
2007,07,15,08,38,15.80
2007,07,15,08,39,15.80
2007,07,15,08,40,15.70
2007,07,15,08,41,15.70
2007,07,15,08,42,15.80
2007,07,15,08,43,15.80
2007,07,15,08,44,15.90
2007,07,15,08,45,15.90
2007,07,15,08,46,16.00
2007,07,15,08,47,16.10
2007,07,15,08,48,16.10
2007,07,15,08,49,16.10
2007,07,15,08,50,15.90
2007,07,15,08,51,15.80
2007,07,15,08,52,15.80
2007,07,15,08,53,15.70
2007,07,15,08,54,15.60
2007,07,15,08,55,15.50
2007,07,15,08,56,15.60
2007,07,15,08,57,15.70
2007,07,15,08,58,15.60
2007,07,15,08,59,15.70
2007,07,15,09,00,15.80
2007,07,15,09,01,15.90
2007,07,15,09,02,15.90
2007,07,15,09,03,16.00
2007,07,15,09,04,16.10
2007,07,15,09,05,16.10
2007,07,15,09,06,16.30
2007,07,15,09,07,16.40
2007,07,15,09,08,16.50
2007,07,15,09,09,16.60
2007,07,15,09,10,16.70
2007,07,15,09,11,16.70
2007,07,15,09,12,16.70
2007,07,15,09,13,16.70
2007,07,15,09,14,16.70
2007,07,15,09,15,16.70
2007,07,15,09,16,16.70
2007,07,15,09,17,16.70
2007,07,15,09,18,16.70
2007,07,15,09,19,16.60
2007,07,15,09,20,16.60
2007,07,15,09,21,16.60
2007,07,15,09,22,16.60
2007,07,15,09,23,16.60
2007,07,15,09,24,16.50
2007,07,15,09,25,16.40
2007,07,15,09,26,16.40
2007,07,15,09,27,16.40
2007,07,15,09,28,16.30
2007,07,15,09,29,16.20
2007,07,15,09,30,16.10
2007,07,15,09,31,16.00
2007,07,15,09,32,15.90
2007,07,15,09,33,15.90
2007,07,15,09,34,15.80
2007,07,15,09,35,15.80
2007,07,15,09,36,15.80
2007,07,15,09,37,15.80
2007,07,15,09,38,15.90
2007,07,15,09,39,16.00
2007,07,15,09,40,16.10
2007,07,15,09,41,16.10
2007,07,15,09,42,16.10
2007,07,15,09,43,16.10
2007,07,15,09,44,16.10
2007,07,15,09,45,16.10
2007,07,15,09,46,16.20
2007,07,15,09,47,16.20
2007,07,15,09,48,16.20
2007,07,15,09,49,16.20
2007,07,15,09,50,16.20
2007,07,15,09,51,16.30
2007,07,15,09,52,16.30
2007,07,15,09,53,16.30
2007,07,15,09,54,16.30
2007,07,15,09,55,16.40
2007,07,15,09,56,16.40
2007,07,15,09,57,16.40
2007,07,15,09,58,16.40
2007,07,15,09,59,16.40
2007,07,15,10,00,16.30
2007,07,15,10,01,16.30
2007,07,15,10,02,16.30
2007,07,15,10,03,16.30
2007,07,15,10,04,16.40
2007,07,15,10,05,16.40
2007,07,15,10,06,16.40
2007,07,15,10,07,16.40
2007,07,15,10,08,16.40
2007,07,15,10,09,16.30
2007,07,15,10,10,16.20
2007,07,15,10,11,16.20
2007,07,15,10,12,16.10
2007,07,15,10,13,16.10
2007,07,15,10,14,16.10
2007,07,15,10,15,16.20
2007,07,15,10,16,16.30
2007,07,15,10,17,16.40
2007,07,15,10,18,16.40
2007,07,15,10,19,16.40
2007,07,15,10,20,16.40
2007,07,15,10,21,16.50
2007,07,15,10,22,16.70
2007,07,15,10,23,16.80
2007,07,15,10,24,16.90
2007,07,15,10,25,16.90
2007,07,15,10,26,17.00
2007,07,15,10,27,17.00
2007,07,15,10,28,17.10
2007,07,15,10,29,17.00
2007,07,15,10,30,17.00
2007,07,15,10,31,16.90
2007,07,15,10,32,17.00
2007,07,15,10,33,17.10
2007,07,15,10,34,17.20
2007,07,15,10,35,17.30
2007,07,15,10,36,17.30
2007,07,15,10,37,17.40
2007,07,15,10,38,17.50
2007,07,15,10,39,17.60
2007,07,15,10,40,17.70
2007,07,15,10,41,17.90
2007,07,15,10,42,18.10
2007,07,15,10,43,18.30
2007,07,15,10,44,18.40
2007,07,15,10,45,18.40
2007,07,15,10,46,18.50
2007,07,15,10,47,18.60
2007,07,15,10,48,18.70
2007,07,15,10,49,18.70
2007,07,15,10,50,18.70
2007,07,15,10,51,18.60
2007,07,15,10,52,18.60
2007,07,15,10,53,18.50
2007,07,15,10,54,18.40
2007,07,15,10,55,18.30
2007,07,15,10,56,18.20
2007,07,15,10,57,18.00
2007,07,15,10,58,17.90
2007,07,15,10,59,17.80
2007,07,15,11,00,17.70
2007,07,15,11,01,17.70
2007,07,15,11,02,17.70
2007,07,15,11,03,17.60
2007,07,15,11,04,17.60
2007,07,15,11,05,17.50
2007,07,15,11,06,17.40
2007,07,15,11,07,17.40
2007,07,15,11,08,17.30
2007,07,15,11,09,17.30
2007,07,15,11,10,17.30
2007,07,15,11,11,17.30
2007,07,15,11,12,17.30
2007,07,15,11,13,17.30
2007,07,15,11,14,17.30
2007,07,15,11,15,17.40
2007,07,15,11,16,17.50
2007,07,15,11,17,17.50
2007,07,15,11,18,17.50
2007,07,15,11,19,17.50
2007,07,15,11,20,17.40
2007,07,15,11,21,17.30
2007,07,15,11,22,17.20
2007,07,15,11,23,17.20
2007,07,15,11,24,17.20
2007,07,15,11,25,17.10
2007,07,15,11,26,17.00
2007,07,15,11,27,17.00
2007,07,15,11,28,17.00
2007,07,15,11,29,17.00
2007,07,15,11,30,17.10
2007,07,15,11,31,17.10
2007,07,15,11,32,17.20
2007,07,15,11,33,17.30
2007,07,15,11,34,17.30
2007,07,15,11,35,17.40
2007,07,15,11,36,17.40
2007,07,15,11,37,17.30
2007,07,15,11,38,17.30
2007,07,15,11,39,17.30
2007,07,15,11,40,17.30
2007,07,15,11,41,17.30
2007,07,15,11,42,17.30
2007,07,15,11,43,17.30
2007,07,15,11,44,17.30
2007,07,15,11,45,17.30
2007,07,15,11,46,17.40
2007,07,15,11,47,17.40
2007,07,15,11,48,17.60
2007,07,15,11,49,17.70
2007,07,15,11,50,17.70
2007,07,15,11,51,17.70
2007,07,15,11,52,17.70
2007,07,15,11,53,17.70
2007,07,15,11,54,17.70
2007,07,15,11,55,17.70
2007,07,15,11,56,17.70
2007,07,15,11,57,17.70
2007,07,15,11,58,17.80
2007,07,15,11,59,17.80
2007,07,15,12,00,17.70
2007,07,15,12,01,17.60
2007,07,15,12,02,17.40
2007,07,15,12,03,17.40
2007,07,15,12,04,17.50
2007,07,15,12,05,17.50
2007,07,15,12,06,17.50
2007,07,15,12,07,17.60
2007,07,15,12,08,17.60
2007,07,15,12,09,17.60
2007,07,15,12,10,17.70
2007,07,15,12,11,17.80
2007,07,15,12,12,18.00
2007,07,15,12,13,18.20
2007,07,15,12,14,18.40
2007,07,15,12,15,18.60
2007,07,15,12,16,18.70
2007,07,15,12,17,18.90
2007,07,15,12,18,18.90
2007,07,15,12,19,18.90
2007,07,15,12,20,18.90
2007,07,15,12,21,19.00
2007,07,15,12,22,19.10
2007,07,15,12,23,19.10
2007,07,15,12,24,19.10
2007,07,15,12,25,19.10
2007,07,15,12,26,19.10
2007,07,15,12,27,19.10
2007,07,15,12,28,19.10
2007,07,15,12,29,19.20
2007,07,15,12,30,19.30
2007,07,15,12,31,19.50
2007,07,15,12,32,19.50
2007,07,15,12,33,19.40
2007,07,15,12,34,19.40
2007,07,15,12,35,19.40
2007,07,15,12,36,19.60
2007,07,15,12,37,19.60
2007,07,15,12,38,19.60
2007,07,15,12,39,19.60
2007,07,15,12,40,19.60
2007,07,15,12,41,19.50
2007,07,15,12,42,19.50
2007,07,15,12,43,19.60
2007,07,15,12,44,19.60
2007,07,15,12,45,19.50
2007,07,15,12,46,19.50
2007,07,15,12,47,19.50
2007,07,15,12,48,19.70
2007,07,15,12,49,19.90
2007,07,15,12,50,20.10
2007,07,15,12,51,20.20
2007,07,15,12,52,20.20
2007,07,15,12,53,20.20
2007,07,15,12,54,20.40
2007,07,15,12,55,20.30
2007,07,15,12,56,20.20
2007,07,15,12,57,20.10
2007,07,15,12,58,19.90
2007,07,15,12,59,19.90
2007,07,15,13,00,19.70
2007,07,15,13,01,19.80
2007,07,15,13,02,20.00
2007,07,15,13,03,20.20
2007,07,15,13,04,20.30
2007,07,15,13,05,20.50
2007,07,15,13,06,20.80
2007,07,15,13,07,20.90
2007,07,15,13,08,21.20
2007,07,15,13,09,21.40
2007,07,15,13,10,21.70
2007,07,15,13,11,22.00
2007,07,15,13,12,22.30
2007,07,15,13,13,22.60
2007,07,15,13,14,22.70
2007,07,15,13,15,22.70
2007,07,15,13,16,22.80
2007,07,15,13,17,22.90
2007,07,15,13,18,22.90
2007,07,15,13,19,23.00
2007,07,15,13,20,23.10
2007,07,15,13,21,23.10
2007,07,15,13,22,23.10
2007,07,15,13,23,22.90
2007,07,15,13,24,23.00
2007,07,15,13,25,23.10
2007,07,15,13,26,23.30
2007,07,15,13,27,23.40
2007,07,15,13,28,23.50
2007,07,15,13,29,23.60
2007,07,15,13,30,23.70
2007,07,15,13,31,23.70
2007,07,15,13,32,23.70
2007,07,15,13,33,23.90
2007,07,15,13,34,24.00
2007,07,15,13,35,24.10
2007,07,15,13,36,24.20
2007,07,15,13,37,24.30
2007,07,15,13,38,24.20
2007,07,15,13,39,24.20
2007,07,15,13,40,24.30
2007,07,15,13,41,24.30
2007,07,15,13,42,24.50
2007,07,15,13,43,24.70
2007,07,15,13,44,24.90
2007,07,15,13,45,25.00
2007,07,15,13,46,25.20
2007,07,15,13,47,25.30
2007,07,15,13,48,25.40
2007,07,15,13,49,25.30
2007,07,15,13,50,25.30
2007,07,15,13,51,25.40
2007,07,15,13,52,25.50
2007,07,15,13,53,25.50
2007,07,15,13,54,25.70
2007,07,15,13,55,25.90
2007,07,15,13,56,25.90
2007,07,15,13,57,26.00
2007,07,15,13,58,26.00
2007,07,15,13,59,26.00
2007,07,15,14,00,26.00
2007,07,15,14,01,26.00
2007,07,15,14,02,26.10
2007,07,15,14,03,26.00
2007,07,15,14,04,26.00
2007,07,15,14,05,25.80
2007,07,15,14,06,25.60
2007,07,15,14,07,25.40
2007,07,15,14,08,25.10
2007,07,15,14,09,25.10
2007,07,15,14,10,25.20
2007,07,15,14,11,25.20
2007,07,15,14,12,25.20
2007,07,15,14,13,25.20
2007,07,15,14,14,25.30
2007,07,15,14,15,25.30
2007,07,15,14,16,25.30
2007,07,15,14,17,25.30
2007,07,15,14,18,25.40
2007,07,15,14,19,25.40
2007,07,15,14,20,25.30
2007,07,15,14,21,25.20
2007,07,15,14,22,25.10
2007,07,15,14,23,25.00
2007,07,15,14,24,25.10
2007,07,15,14,25,25.20
2007,07,15,14,26,25.30
2007,07,15,14,27,25.40
2007,07,15,14,28,25.50
2007,07,15,14,29,25.60
2007,07,15,14,30,25.60
2007,07,15,14,31,25.60
2007,07,15,14,32,25.60
2007,07,15,14,33,25.80
2007,07,15,14,34,25.90
2007,07,15,14,35,25.80
2007,07,15,14,36,25.70
2007,07,15,14,37,25.60
2007,07,15,14,38,25.50
2007,07,15,14,39,25.40
2007,07,15,14,40,25.40
2007,07,15,14,41,25.40
2007,07,15,14,42,25.30
2007,07,15,14,43,25.40
2007,07,15,14,44,25.40
2007,07,15,14,45,25.50
2007,07,15,14,46,25.50
2007,07,15,14,47,25.40
2007,07,15,14,48,25.30
2007,07,15,14,49,25.10
2007,07,15,14,50,25.00
2007,07,15,14,51,25.00
2007,07,15,14,52,25.10
2007,07,15,14,53,25.20
2007,07,15,14,54,25.30
2007,07,15,14,55,25.40
2007,07,15,14,56,25.40
2007,07,15,14,57,25.40
2007,07,15,14,58,25.40
2007,07,15,14,59,25.40
2007,07,15,15,00,25.40
2007,07,15,15,01,25.40
2007,07,15,15,02,25.40
2007,07,15,15,03,25.40
2007,07,15,15,04,25.50
2007,07,15,15,05,25.70
2007,07,15,15,06,25.90
2007,07,15,15,07,26.00
2007,07,15,15,08,26.20
2007,07,15,15,09,26.20
2007,07,15,15,10,26.10
2007,07,15,15,11,26.00
2007,07,15,15,12,26.00
2007,07,15,15,13,25.90
2007,07,15,15,14,25.80
2007,07,15,15,15,25.70
2007,07,15,15,16,25.80
2007,07,15,15,17,25.70
2007,07,15,15,18,25.70
2007,07,15,15,19,25.80
2007,07,15,15,20,25.90
2007,07,15,15,21,26.00
2007,07,15,15,22,26.00
2007,07,15,15,23,26.10
2007,07,15,15,24,26.10
2007,07,15,15,25,26.10
2007,07,15,15,26,26.10
2007,07,15,15,27,26.00
2007,07,15,15,28,25.90
2007,07,15,15,29,25.90
2007,07,15,15,30,25.90
2007,07,15,15,31,25.90
2007,07,15,15,32,25.80
2007,07,15,15,33,25.70
2007,07,15,15,34,25.60
2007,07,15,15,35,25.50
2007,07,15,15,36,25.40
2007,07,15,15,37,25.50
2007,07,15,15,38,25.50
2007,07,15,15,39,25.60
2007,07,15,15,40,25.70
2007,07,15,15,41,25.70
2007,07,15,15,42,25.60
2007,07,15,15,43,25.50
2007,07,15,15,44,25.40
2007,07,15,15,45,25.30
2007,07,15,15,46,25.30
2007,07,15,15,47,25.20
2007,07,15,15,48,25.20
2007,07,15,15,49,25.20
2007,07,15,15,50,25.30
2007,07,15,15,51,25.30
2007,07,15,15,52,25.40
2007,07,15,15,53,25.40
2007,07,15,15,54,25.50
2007,07,15,15,55,25.50
2007,07,15,15,56,25.60
2007,07,15,15,57,25.60
2007,07,15,15,58,25.60
2007,07,15,15,59,25.60
2007,07,15,16,00,25.60
2007,07,15,16,01,25.50
2007,07,15,16,02,25.50
2007,07,15,16,03,25.40
2007,07,15,16,04,25.30
2007,07,15,16,05,25.30
2007,07,15,16,06,25.20
2007,07,15,16,07,25.20
2007,07,15,16,08,25.30
2007,07,15,16,09,25.40
2007,07,15,16,10,25.40
2007,07,15,16,11,25.40
2007,07,15,16,12,25.40
2007,07,15,16,13,25.40
2007,07,15,16,14,25.40
2007,07,15,16,15,25.40
2007,07,15,16,16,25.30
2007,07,15,16,17,25.40
2007,07,15,16,18,25.40
2007,07,15,16,19,25.50
2007,07,15,16,20,25.60
2007,07,15,16,21,25.60
2007,07,15,16,22,25.60
2007,07,15,16,23,25.70
2007,07,15,16,24,25.70
2007,07,15,16,25,25.80
2007,07,15,16,26,25.90
2007,07,15,16,27,25.80
2007,07,15,16,28,25.80
2007,07,15,16,29,25.80
2007,07,15,16,30,25.90
2007,07,15,16,31,25.90
2007,07,15,16,32,26.00
2007,07,15,16,33,26.20
2007,07,15,16,34,26.30
2007,07,15,16,35,26.30
2007,07,15,16,36,26.30
2007,07,15,16,37,26.40
2007,07,15,16,38,26.40
2007,07,15,16,39,26.40
2007,07,15,16,40,26.40
2007,07,15,16,41,26.40
2007,07,15,16,42,26.40
2007,07,15,16,43,26.40
2007,07,15,16,44,26.30
2007,07,15,16,45,26.40
2007,07,15,16,46,26.40
2007,07,15,16,47,26.30
2007,07,15,16,48,26.20
2007,07,15,16,49,26.20
2007,07,15,16,50,26.20
2007,07,15,16,51,26.30
2007,07,15,16,52,26.40
2007,07,15,16,53,26.60
2007,07,15,16,54,26.60
2007,07,15,16,55,26.60
2007,07,15,16,56,26.50
2007,07,15,16,57,26.60
2007,07,15,16,58,26.60
2007,07,15,16,59,26.70
2007,07,15,17,00,26.70
2007,07,15,17,01,26.70
2007,07,15,17,02,26.70
2007,07,15,17,03,26.80
2007,07,15,17,04,26.70
2007,07,15,17,05,26.70
2007,07,15,17,06,26.50
2007,07,15,17,07,26.40
2007,07,15,17,08,26.20
2007,07,15,17,09,26.20
2007,07,15,17,10,26.20
2007,07,15,17,11,26.10
2007,07,15,17,12,26.00
2007,07,15,17,13,25.90
2007,07,15,17,14,25.70
2007,07,15,17,15,25.60
2007,07,15,17,16,25.50
2007,07,15,17,17,25.40
2007,07,15,17,18,25.40
2007,07,15,17,19,25.40